Вернуться в каталог

SHIYAN 27A

АктивенНаукаSSO
NORAD 63599·PAYLOAD·🇨🇳 China

Запущен Apr 18, 2025 с Taiyuan Satellite Launch Center

Loading…

Ближайшие Пролёты (ближайшие 24 часа)

TLE

СвежийSource: Space-Track

Эпоха: Sep 14, 2026, 14:10 UTC

1 63599U 25078A   26257.59040368 -.00000007  00000-0  52104-4 0  9995
2 63599  99.6941 263.4866 0000973 106.0783 254.0462 13.57250188 69661

Отслеживайте SHIYAN 27A в реальном времени с AllMySat

Download on the App Store